• In Italy
  • List of Countries
  • For 7 days
  • Water Temperature
  • Satellite Maps
  • Weather Map
  • Weather Widgets
  • user-avatar
    Login

    Hourly Weather Dili

    Today, 16 July, Monday

    Time Temperature Precipitation Wind Pressure Humidity
    00:00 +25°C° 0 mm 2 mps 754 mmHg 91%
    01:00 +25°C° 0 mm 2 mps 753 mmHg 92%
    02:00 +24°C° 0 mm 2 mps 753 mmHg 93%
    03:00 +24°C° 0 mm 2 mps 753 mmHg 93%
    04:00 +24°C° 0 mm 2 mps 753 mmHg 93%
    05:00 +24°C° 0 mm 2 mps 753 mmHg 93%
    06:00 +25°C° 0 mm 2 mps 753 mmHg 86%
    07:00 +27°C° 0 mm 2 mps 754 mmHg 78%
    08:00 +29°C° 0 mm 2 mps 754 mmHg 69%
    09:00 +30°C° 0 mm 2 mps 754 mmHg 62%
    10:00 +32°C° 0 mm 2 mps 754 mmHg 54%
    11:00 +34°C° 0 mm 3 mps 754 mmHg 47%
    12:00 +33°C° 0 mm 3 mps 753 mmHg 49%
    13:00 +33°C° 0 mm 3 mps 753 mmHg 51%
    14:00 +31°C° 0 mm 2 mps 752 mmHg 54%
    15:00 +30°C° 0 mm 2 mps 752 mmHg 59%
    16:00 +29°C° 0 mm 2 mps 752 mmHg 64%
    17:00 +28°C° 0 mm 1 mps 752 mmHg 69%
    18:00 +27°C° 0 mm 1 mps 752 mmHg 75%
    19:00 +26°C° 0 mm 2 mps 753 mmHg 80%
    20:00 +25°C° 0 mm 1 mps 753 mmHg 85%
    21:00 +25°C° 0 mm 2 mps 753 mmHg 85%
    22:00 +24°C° 0 mm 2 mps 753 mmHg 85%
    23:00 +24°C° 0 mm 2 mps 754 mmHg 85%

    Tomorrow, 17 July, Tuesday

    Time Temperature Precipitation Wind Pressure Humidity
    00:00 +24°C° 0 mm 2 mps 753 mmHg 84%
    01:00 +25°C° 0 mm 2 mps 753 mmHg 82%
    02:00 +25°C° 0 mm 2 mps 753 mmHg 81%
    03:00 +25°C° 0 mm 2 mps 753 mmHg 80%
    04:00 +25°C° 0 mm 1 mps 753 mmHg 78%
    05:00 +25°C° 0 mm 1 mps 753 mmHg 77%
    06:00 +26°C° 0 mm 1 mps 753 mmHg 70%
    07:00 +27°C° 0 mm 1 mps 754 mmHg 63%
    08:00 +29°C° 0 mm 1 mps 754 mmHg 56%
    09:00 +30°C° 0 mm 2 mps 754 mmHg 50%
    10:00 +33°C° 0 mm 3 mps 753 mmHg 45%
    11:00 +35°C° 0 mm 3 mps 753 mmHg 39%
    12:00 +35°C° 0 mm 3 mps 753 mmHg 40%
    13:00 +34°C° 0 mm 4 mps 752 mmHg 42%
    14:00 +34°C° 0 mm 4 mps 752 mmHg 43%
    15:00 +33°C° 0 mm 4 mps 752 mmHg 50%
    16:00 +30°C° 0 mm 4 mps 752 mmHg 56%
    17:00 +29°C° 0 mm 4 mps 752 mmHg 63%
    18:00 +28°C° 0 mm 3 mps 752 mmHg 69%
    19:00 +27°C° 0 mm 3 mps 753 mmHg 75%
    20:00 +25°C° 0 mm 3 mps 753 mmHg 81%
    21:00 +25°C° 0 mm 3 mps 753 mmHg 82%
    22:00 +25°C° 0 mm 3 mps 753 mmHg 84%
    23:00 +24°C° 0 mm 3 mps 753 mmHg 85%

    Day after tomorrow, 18 July, Wednesday

    Time Temperature Precipitation Wind Pressure Humidity
    00:00 +24°C° 0 mm 3 mps 753 mmHg 83%
    01:00 +24°C° 0 mm 3 mps 753 mmHg 80%
    02:00 +24°C° 0 mm 3 mps 753 mmHg 78%
    03:00 +24°C° 0 mm 3 mps 753 mmHg 74%
    04:00 +24°C° 0 mm 3 mps 753 mmHg 71%
    05:00 +24°C° 0 mm 3 mps 752 mmHg 68%
    06:00 +26°C° 0 mm 3 mps 753 mmHg 59%
    07:00 +28°C° 0 mm 2 mps 753 mmHg 49%
    08:00 +30°C° 0 mm 2 mps 754 mmHg 40%
    09:00 +31°C° 0 mm 2 mps 754 mmHg 39%
    10:00 +34°C° 0 mm 3 mps 753 mmHg 38%
    11:00 +35°C° 0 mm 4 mps 753 mmHg 37%
    12:00 +34°C° 0 mm 4 mps 753 mmHg 40%
    13:00 +34°C° 0 mm 4 mps 752 mmHg 44%
    14:00 +34°C° 0 mm 4 mps 752 mmHg 47%
    15:00 +33°C° 0 mm 4 mps 752 mmHg 53%
    16:00 +30°C° 0 mm 4 mps 752 mmHg 60%
    17:00 +29°C° 0 mm 4 mps 752 mmHg 66%
    18:00 +28°C° 0 mm 4 mps 752 mmHg 71%
    19:00 +27°C° 0 mm 3 mps 753 mmHg 77%
    20:00 +26°C° 0 mm 3 mps 753 mmHg 82%
    21:00 +26°C° 0 mm 3 mps 753 mmHg 80%
    22:00 +26°C° 0 mm 3 mps 754 mmHg 79%
    23:00 +26°C° 0 mm 3 mps 754 mmHg 77%

    19 July, Thursday

    Time Temperature Precipitation Wind Pressure Humidity
    00:00 +26°C° 0 mm 2 mps 753 mmHg 77%
    01:00 +26°C° 0 mm 2 mps 753 mmHg 78%
    02:00 +26°C° 0 mm 2 mps 753 mmHg 78%
    03:00 +26°C° 0 mm 2 mps 753 mmHg 81%
    04:00 +26°C° 0 mm 2 mps 752 mmHg 83%
    05:00 +26°C° 0 mm 2 mps 752 mmHg 86%
    06:00 +27°C° 0 mm 2 mps 753 mmHg 83%
    07:00 +28°C° 0 mm 2 mps 753 mmHg 80%
    08:00 +29°C° 0 mm 2 mps 754 mmHg 76%
    09:00 +30°C° 0.1 mm 2 mps 754 mmHg 75%
    10:00 +31°C° 0.1 mm 3 mps 754 mmHg 74%
    11:00 +31°C° 0.1 mm 3 mps 753 mmHg 72%
    12:00 +31°C° 0.4 mm 3 mps 753 mmHg 75%
    13:00 +30°C° 0.4 mm 3 mps 752 mmHg 77%
    14:00 +30°C° 0.4 mm 3 mps 752 mmHg 79%
    15:00 +30°C° 0.7 mm 3 mps 752 mmHg 82%
    16:00 +29°C° 0.7 mm 3 mps 752 mmHg 84%
    17:00 +28°C° 0.7 mm 3 mps 752 mmHg 87%
    18:00 +28°C° 0.5 mm 3 mps 753 mmHg 88%
    19:00 +28°C° 0.5 mm 3 mps 753 mmHg 90%
    20:00 +27°C° 0.5 mm 3 mps 754 mmHg 92%
    21:00 +27°C° 0.1 mm 3 mps 754 mmHg 92%
    22:00 +27°C° 0.1 mm 3 mps 754 mmHg 92%
    23:00 +27°C° 0.1 mm 3 mps 754 mmHg 93%

    20 July, Friday

    Time Temperature Precipitation Wind Pressure Humidity
    00:00 +27°C° 0 mm 3 mps 754 mmHg 93%
    01:00 +27°C° 0 mm 3 mps 753 mmHg 93%
    02:00 +27°C° 0 mm 3 mps 753 mmHg 93%
    03:00 +26°C° 0 mm 3 mps 753 mmHg 92%
    04:00 +26°C° 0 mm 3 mps 753 mmHg 92%
    05:00 +26°C° 0 mm 3 mps 753 mmHg 91%
    06:00 +28°C° 0.1 mm 3 mps 753 mmHg 85%
    07:00 +29°C° 0.1 mm 3 mps 754 mmHg 79%
    08:00 +30°C° 0.1 mm 3 mps 754 mmHg 73%
    09:00 +32°C° 0.1 mm 4 mps 754 mmHg 70%
    10:00 +32°C° 0.1 mm 4 mps 754 mmHg 67%
    11:00 +33°C° 0.1 mm 5 mps 754 mmHg 65%
    12:00 +33°C° 0.2 mm 5 mps 753 mmHg 67%
    13:00 +32°C° 0.2 mm 5 mps 753 mmHg 69%
    14:00 +32°C° 0.2 mm 5 mps 752 mmHg 71%
    15:00 +30°C° 0.2 mm 5 mps 752 mmHg 74%
    16:00 +30°C° 0.2 mm 5 mps 752 mmHg 78%
    17:00 +29°C° 0.2 mm 5 mps 752 mmHg 81%
    18:00 +28°C° 0.1 mm 4 mps 753 mmHg 85%
    19:00 +28°C° 0.1 mm 4 mps 753 mmHg 88%
    20:00 +27°C° 0.1 mm 4 mps 754 mmHg 91%
    21:00 +27°C° 0 mm 4 mps 754 mmHg 91%
    22:00 +27°C° 0 mm 4 mps 754 mmHg 90%
    23:00 +27°C° 0 mm 4 mps 754 mmHg 90%

    21 July, Saturday

    Time Temperature Precipitation Wind Pressure Humidity
    00:00 +27°C° 0 mm 3 mps 754 mmHg 90%
    01:00 +27°C° 0 mm 3 mps 753 mmHg 89%
    02:00 +26°C° 0 mm 3 mps 753 mmHg 89%
    03:00 +26°C° 0 mm 3 mps 753 mmHg 87%
    04:00 +26°C° 0 mm 3 mps 753 mmHg 85%
    05:00 +26°C° 0 mm 3 mps 754 mmHg 84%
    06:00 +27°C° 0 mm 3 mps 754 mmHg 82%
    07:00 +28°C° 0 mm 4 mps 754 mmHg 81%
    08:00 +28°C° 0 mm 4 mps 755 mmHg 79%
    09:00 +29°C° 0 mm 4 mps 754 mmHg 74%
    10:00 +32°C° 0 mm 5 mps 754 mmHg 69%
    11:00 +33°C° 0 mm 5 mps 754 mmHg 65%
    12:00 +33°C° 0 mm 5 mps 753 mmHg 65%
    13:00 +33°C° 0 mm 5 mps 753 mmHg 65%
    14:00 +33°C° 0 mm 6 mps 752 mmHg 66%
    15:00 +32°C° 0 mm 6 mps 752 mmHg 70%
    16:00 +30°C° 0 mm 6 mps 752 mmHg 74%
    17:00 +29°C° 0 mm 6 mps 752 mmHg 78%
    18:00 +28°C° 0 mm 5 mps 753 mmHg 82%
    19:00 +28°C° 0 mm 5 mps 753 mmHg 85%
    20:00 +27°C° 0 mm 5 mps 754 mmHg 89%
    21:00 +27°C° 0 mm 4 mps 754 mmHg 89%
    22:00 +27°C° 0 mm 4 mps 754 mmHg 89%
    23:00 +27°C° 0 mm 4 mps 754 mmHg 89%
    Show more